Regional Weather Roundup
Issued by NWS

Home | Current Version | Previous Version | Text Only | Print | Product List | Glossary On
Versions: 1 2 3 4 5 6 7 8 9 10 11 12 13 14 15 16 17 18 19 20 21 22 23 24 25 26 27 28 29 30 31 32 33 34 35 36 37 38 39 40 41 42 43 44 45 46 47 48 49 50
000
ASHW40 PHFO 191343
RWRHI

WEATHER ROUNDUP FOR HAWAII
NATIONAL WEATHER SERVICE HONOLULU HI
300 AM HST SUN APR 19 2015

THIS IS AN AUTOMATED REPORT THAT HAS NOT BEEN QUALITY CONTROLLED.

NOTE..."FAIR" INDICATES FEW OR NO CLOUDS BELOW 12,000 FEET WITH NO
SIGNIFICANT WEATHER AND/OR OBSTRUCTIONS TO VISIBILITY.

* - THESE SITES REPORT LIMITED FIELDS

HIZ001>004-191400-
KAUAI-NIIHAU-

CITY           SKY/WX    TMP DP  RH WIND       PRES   REMARKS
LIHUE APT      CLOUDY    74  64  71 NE17      30.15F
PORT ALLEN*      N/A     73 N/A N/A NE13G18     N/A
POIPU*           N/A     73 N/A N/A NE8G20      N/A
PRINCEVILLE*     N/A     70 N/A N/A MISG        N/A
KOKOLE POINT*  NOT AVBL
MOLOAA DAIRY*  NOT AVBL
WAIMEA HTS*      N/A     72  57  60 NE5G10      N/A
PUU OPAE*        N/A     64  52  63 E3G10       N/A
PUU LUA*       NOT AVBL
MAKAHA RIDGE*    N/A     64  52  63 E3G12       N/A
$$

HIZ005>011-191400-
OAHU-

CITY           SKY/WX    TMP DP  RH WIND       PRES   REMARKS
HONOLULU       PTCLDY    74  64  71 NE17G23   30.09F
KALAELOA       PTCLDY    73  63  70 E9        30.11S
KANEOHE MCB    LGT RAIN  73  65  75 E10G23    30.09F
WHEELER FIELD    N/A    N/A N/A N/A MISG        N/A
BELLOWS*         N/A    N/A N/A N/A E23G29      N/A
KAHUKU*          N/A    N/A N/A N/A NE8G20      N/A
WHEELER*       NOT AVBL
WAIANAE HARBOR NOT AVBL
DILLINGHAM*      N/A     70  63  78 MISG        N/A
KAHUKU TRN*      N/A     70  64  83 E12G26      N/A
KAWAILOA*        N/A     68  64  88 E12G23      N/A
KII*             N/A     73  66  78 NE18G33     N/A
MAKUA RANGE*     N/A     72  61  68 E1          N/A
OAHU FOREST NW   N/A    N/A N/A N/A CALM        N/A
SCHOFIELD BRK*   N/A     70  64  83 MISG        N/A
SCHOFIELD S*   NOT AVBL
WAIANAE VLY*     N/A     70  64  83 SW3G16      N/A
KUAOKALA*        N/A     68  63  83 E10G24      N/A
HONOULIUULI*   NOT AVBL
MOKUOLOE IS*   NOT AVBL
PALEHUA*         N/A    N/A N/A N/A E9G24       N/A
WAIAWA PHB*    NOT AVBL
$$

HIZ012>013-191400-
MOLOKAI-

CITY           SKY/WX    TMP DP  RH WIND       PRES   REMARKS
MOLOKAI AIRPT  PTCLDY    72  63  73 NE15G23   30.10S
KALAUPAPA      NOT AVBL
MAKAPULAPAI*     N/A     73  66  78 E23G35      N/A
MOLOKAI 1*       N/A     63  55  77 NE3G18      N/A
PUU ALII*        N/A     56  56  99 E3G16       N/A
$$

HIZ016-191400-
KAHOOLAWE-

CITY           SKY/WX    TMP DP  RH WIND       PRES   REMARKS
KAHOOLAWE*       N/A     66 N/A N/A E25G38      N/A
HAKIOAWA*        N/A     68  62  82 MISG      30.49R
HONOKANAIA*      N/A     74  64  70 NE18G39   30.08F
KANELOA*         N/A     72  64  78 MISG      29.29
KEALIALALO*      N/A     70  63  78 E17G37    30.08R
LUA MAKIKA*    NOT AVBL
$$

HIZ014>015-191400-
LANAI-

CITY           SKY/WX    TMP DP  RH WIND       PRES   REMARKS
LANAI CITY     MOCLDY    68  61  78 E3        30.13S
LANAI 1*         N/A     70  68  94 NE15G25     N/A
$$

HIZ017>028-191400-
MAUI-

CITY           SKY/WX    TMP DP  RH WIND       PRES   REMARKS
KAHULUI        PTCLDY    73  64  73 E17G24    30.07F
KAPALUA-W MAUI NOT AVBL
HANA AIRPORT   MOCLDY    73  66  78 E7        30.13F
HANA*            N/A     73 N/A N/A E9G17       N/A
HALEAKALA SUMM   N/A     46 -11   8 E13G29      N/A
MAALAEA BAY*   NOT AVBL
HALEAKALA*     NOT AVBL
KAUPO GAP*       N/A     59  50  72 N14G33      N/A
KULA 1*          N/A     53   8  16 CALM        N/A
$$

HIZ023>026-191400-
BIG ISLAND OF HAWAII COAST AND LOWER SLOPES-

CITY           SKY/WX    TMP DP  RH WIND       PRES   REMARKS
KAILUA KONA    PTCLDY    75  64  68 CALM      30.02F
HILO           PTCLDY    67  64  90 S6        30.11F
HONOKAA*       NOT AVBL
KAWAIHAE MWT*    N/A     77 N/A N/A E20G32      N/A
KAWAIHAE*        N/A     79 N/A N/A SE12G18     N/A
SOUTH POINT*     N/A     70 N/A N/A NE17G29     N/A
UPOLU AIRPORT*   N/A    N/A N/A N/A NE21G32     N/A
KAMUELA*       SUNNY     61  55  82 E8G21     30.14R
HAKALAU*         N/A     48  46  93 S5G10       N/A
KALOKO-HONOKO*   N/A     73  63  68 E3        30.01F
PALI 2*          N/A     63  54  72 N13G20      N/A
KEALAKOMO*       N/A     72  63  73 N13G20      N/A
KAUPULEHU*       N/A     66  55  68 SE10        N/A
KAPAPALA*        N/A     68  52  56 NE6G18      N/A
LOWER KAHUKU*    N/A     57  50  77 N3G12       N/A
PUHE CS*         N/A     75  55  50 E13G26      N/A
PUHO CS*         N/A     72  68  87 E3          N/A
PTA KEAMUKU*     N/A     54  46  76 CALM        N/A
WAIKOLOA*        N/A     66  50  55 E13G22      N/A
$$

HIZ027>028-191400-
BIG ISLAND OF HAWAII INTERIOR AND SUMMMITS-

CITY           SKY/WX    TMP DP  RH WIND       PRES   REMARKS
BRADSHAW FIELD CLOUDY    47  43  84 SE10      30.32F
MK VISITOR CEN NOT AVBL
MAUNA KEA*       N/A     34 -13  13 E18         N/A  WCI  23
MAUNA LOA*       N/A     41   0  17 MISG        N/A
MAUNA LOA 1*   NOT AVBL
PTA KIPUKA*      N/A     52  50  93 E3          N/A
PTA RANGE 17*    N/A     52  45  76 SE16G28     N/A
PTA WEST*        N/A     75  63  64 SE9G26      N/A
NENE CABIN*      N/A     45  36  70 NE8G14      N/A
AHUMOA*          N/A    N/A N/A N/A NE8         N/A
PTA PORTABLE*  NOT AVBL
PUU MALI*        N/A    N/A N/A N/A SW6G12      N/A
$$

HIC003-191400-
NORTHWEST ISLANDS-

CITY           SKY/WX    TMP DP  RH WIND       PRES   REMARKS
MIDWAY ISLAND  MOCLDY    66  66 100 E12       30.26F
MIDWAY NOS*    NOT AVBL
FRENCH FRIGATE NOT AVBL
$$

PHZ110>124-180-191400-
BUOY REPORTS

STATION/POSITION TIME  TEMP    WIND        PRES    WAVE   SWELL
                       AIR SEA DIR/SP/G            HT/PER HT/DIR
                 (UTC) (F)     (DEG/KT/KT) (MB)    (FT/S) (FT/D)
BUOY 51001       NOT AVBL
BUOY 51101       1300   73 73   90/ 17/ 19 1021.5F   6/ 8   5/110
BUOY 51100       1200   72      90/ 12     1022.9
BUOY 51002       1300   77 78   80/ 23/ 27 1015.3F  12/10   8/ 80
BUOY 51003       1300   77 78   90/ 16/ 17 1017.9F   7/ 9   5
BUOY 51004       1213   76 77   60/ 21/ 25 1016.5F  10/ 9   5/ 90
BARBERS PT BUOY  NOT AVBL
WAIMEA BAY BUOY  1300      76                N/A     6/10   2/340
KAILUA BAY BUOY  1300      76                N/A     9/ 7   2/ 60
LANAI BUOY       1300      77                N/A     3/13   2/180
BARBERS PT 2     1300      77                N/A     4/ 8   2/210
PAUWELA MAUI     1300      76                N/A     8/10   2/ 40
HILO             1300      78                N/A     9/ 8   3/ 70
KANEOHE BAY BUOY 1300      75                N/A     7/ 8   2/360
HANALEI KAUAI    1300      76                N/A     8/ 7   2/350
KAHULUI HARBOR   1300   74 77   60/ 10/ 19 1018.4
HONOLULU HARBOR  1300   75 77   70/  5/ 12 1019.0
KILO NALU        NOT AVBL
HILO HARBOR      1300   69 77  190/  7/  8 1019.1
MOKUOLOE         1300   74 77   90/ 14/ 17 1019.8F
NAWILIWILI       1300   74 78   50/ 11/ 16 1020.1F
WHOTS BUOY       NOT AVBL
BUOY 51028       NOT AVBL
$$

......................KEY........................................
  SKY/WX - SKY CONDITIONS/PRESENT WEATHER
  TMP    - TEMPERATURE IN FAHRENHEIT
  DWPT   - DEWPOINT IN FAHRENHEIT
  RH     - RELATIVE HUMIDITY IN PERCENT
  WIND   - DIRECTION AND SPEED /MPH FOR ISLANDS...KTS FOR BUOYS/
  PRES   - MEAN SEA LEVEL PRESSURE IN INCHES OF HG
  VSB    - VISIBILITY IN MILES
  HX     - HEAT INDEX
  WCI    - WIND CHILL INDEX
  VRB    - VARIABLE WIND DIRECTION
  N/A    - NOT AVAILABLE


USA.gov is the U.S. government's official web portal to all federal, state and local government web resources and services.